Weather observations for the past three days for
Minneapolis, Airlake Airport
Imperial (Metric)
Date Time (cdt) Wind (mph) Vis. (mi.) Weather Sky Cond. Temperature (ºF) Relative Humidity Wind Chill (°F) Heat Index (°F) Pressure Precipitation (in)
Air Dwpt 6 hour altimeter (in) sea level (mb) 1 hr 3 hr 6 hr
Max. Min.
24 21:55 S 9 10.00 Partly Cloudy SCT070 80.6 73.4 79% 85 29.57 0.0
24 21:35 E 3 10.00 Partly Cloudy SCT070 77 71.6 83% 78 29.58 0.0
24 21:15 E 6 10.00 Partly Cloudy SCT070 78.8 71.6 79% 82 29.6 0.0
24 20:55 Calm 10.00 Partly Cloudy SCT070 78.8 71.6 79% 82 29.61 0.0
24 20:35 E 3 10.00 Fair CLR 78.8 71.6 79% 82 29.61 0.0
24 20:15 E 5 5.00 Fair with Haze CLR 80.6 71.6 74% 85 29.62 0.0
24 19:55 E 3 10.00 Fair CLR 82.4 71.6 70% 87 29.62 0.0
24 19:35 SE 3 10.00 Fair CLR 82.4 71.6 70% 87 29.63 0.0
24 19:15 SE 5 G 9 7.00 Fair CLR 82.4 71.6 70% 87 29.61 0.0
24 18:55 SE 9 G 20 10.00 Fair CLR 84.2 71.6 66% 90 29.61 0.0
24 18:35 SE 14 G 17 10.00 Fair CLR 84.2 71.6 66% 90 29.62 0.0
24 18:15 SE 10 G 18 10.00 Fair CLR 82.4 71.6 70% 87 29.64 0.0
24 17:55 SE 14 10.00 Fair CLR 82.4 71.6 70% 87 29.66 0.0
24 17:35 SE 8 10.00 Fair CLR 82.4 71.6 70% 87 29.65 0.0
24 17:15 E 12 G 17 10.00 Fair CLR 82.4 71.6 70% 87 29.66 0.0
24 16:55 SE 13 G 16 10.00 Fair CLR 82.4 71.6 70% 87 29.68 0.0
24 16:35 E 10 10.00 Partly Cloudy SCT042 82.4 71.6 70% 87 29.69 0.0
24 16:15 E 13 10.00 Partly Cloudy SCT042 82.4 69.8 66% 86 29.69 0.0
24 15:55 SE 13 10.00 Partly Cloudy SCT040 82.4 69.8 66% 86 29.7 0.0
24 15:35 SE 13 10.00 Mostly Cloudy BKN040 82.4 69.8 66% 86 29.72 0.0
24 15:15 SE 12 G 18 10.00 Mostly Cloudy BKN040 84.2 69.8 62% 88 29.75 0.0
24 14:55 SE 12 10.00 Mostly Cloudy BKN040 82.4 69.8 66% 86 29.76 0.0
24 14:35 SE 9 G 16 10.00 Partly Cloudy SCT040 82.4 68 62% 85 29.77 0.0
24 14:15 SE 14 G 21 10.00 Fair CLR 82.4 66.2 58% 85 29.76 0.0
24 13:55 SE 15 G 22 10.00 Fair CLR 84.2 66.2 55% 87 29.76 0.0
24 13:35 SE 12 G 18 10.00 Fair CLR 84.2 66.2 55% 87 29.8 0.0
24 13:15 SE 9 G 20 10.00 Fair CLR 84.2 66.2 55% 87 29.82 0.0
24 12:55 SE 12 G 20 10.00 Fair CLR 82.4 66.2 58% 85 29.82 0.0
24 12:35 SE 15 G 22 10.00 Fair CLR 82.4 64.4 55% 84 29.8 0.0
24 12:15 SE 14 G 17 10.00 Fair CLR 82.4 64.4 55% 84 29.81 0.0
24 11:55 SE 14 G 20 10.00 Fair CLR 80.6 64.4 58% 82 29.83 0.0
24 11:35 SE 14 G 21 10.00 Fair CLR 80.6 62.6 54% 82 29.83 0.0
24 11:15 SE 15 G 23 10.00 Partly Cloudy SCT070 78.8 62.6 58% 80 29.83 0.0
24 10:55 SE 12 G 17 10.00 Partly Cloudy SCT070 78.8 62.6 58% 80 29.84 0.0
24 10:35 SE 9 10.00 Mostly Cloudy BKN070 77 62.6 61% 79 29.86 0.0
24 10:15 SE 8 10.00 Mostly Cloudy BKN070 77 62.6 61% 79 29.87 0.0
24 09:55 SE 6 10.00 Mostly Cloudy BKN060 75.2 64.4 69% 77 29.87 0.0
24 09:35 SE 7 10.00 Overcast OVC060 75.2 62.6 65% 77 29.88 0.0
24 09:15 SE 7 10.00 Mostly Cloudy BKN060 73.4 62.6 69% 29.89 0.0
24 08:55 SE 5 10.00 Partly Cloudy SCT060 73.4 62.6 69% 29.88 0.0
24 08:35 SE 5 10.00 Partly Cloudy SCT060 71.6 62.6 73% 29.87 0.0
24 08:15 S 6 10.00 Partly Cloudy SCT048 71.6 62.6 73% 29.87 0.0
24 07:55 SE 6 10.00 Partly Cloudy SCT048 69.8 62.6 78% 29.88 0.0
24 07:35 SE 5 10.00 Fair CLR 66.2 62.6 88% 29.89 0.0
24 07:15 Calm 10.00 Fair CLR 66.2 62.6 88% 29.89 0.0
24 06:55 SE 3 10.00 Fair CLR 64.4 62.6 94% 29.88 0.0
24 06:35 S 3 10.00 Fair CLR 62.6 62.6 100% 29.88 0.0
24 06:15 Calm 10.00 Fair CLR 62.6 62.6 100% 29.88 0.0
24 05:55 Calm 10.00 Fair CLR 60.8 60.8 100% 29.88 0.0
24 05:35 Calm 7.00 Fair CLR 60.8 60.8 100% 29.89 0.0
24 05:15 Calm 10.00 Partly Cloudy SCT070 60.8 60.8 100% 29.89 0.0
24 04:55 Calm 10.00 Partly Cloudy SCT070 60.8 60.8 100% 29.89 0.0
24 04:35 Calm 10.00 Fair CLR 60.8 60.8 100% 29.89 0.0
24 04:15 Calm 10.00 Fair CLR 60.8 60.8 100% 29.89 0.0
24 03:55 Calm 10.00 Fair CLR 60.8 60.8 100% 29.89 0.0
24 03:35 Calm 10.00 Fair CLR 60.8 60.8 100% 29.9 0.0
24 03:15 Calm 10.00 Fair CLR 62.6 62.6 100% 29.9 0.0
24 02:55 Calm 10.00 Fair CLR 62.6 62.6 100% 29.9 0.0
24 02:35 Calm 10.00 Fair CLR 62.6 62.6 100% 29.9 0.0
24 02:15 Calm 10.00 Fair CLR 62.6 62.6 100% 29.9 0.0
24 01:55 Calm 10.00 Fair CLR 62.6 62.6 100% 29.91 0.0
24 01:35 Calm 10.00 Fair CLR 64.4 62.6 94% 29.91 0.0
24 01:15 Calm 10.00 Fair CLR 64.4 62.6 94% 29.91 0.0
24 00:55 Calm 10.00 Fair CLR 64.4 62.6 94% 29.91 0.0
24 00:35 Calm 10.00 Fair CLR 64.4 62.6 94% 29.91 0.0
24 00:15 Calm 10.00 Fair CLR 64.4 62.6 94% 29.91 0.0
23 23:55 Calm 10.00 Fair CLR 64.4 62.6 94% 29.9 0.0
23 23:35 Calm 10.00 Fair CLR 66.2 62.6 88% 29.91 0.0
23 23:15 Calm 10.00 Fair CLR 66.2 64.4 94% 29.9 0.0
23 22:55 Calm 10.00 Fair CLR 66.2 64.4 94% 29.9 0.0
23 22:35 Calm 7.00 Fair CLR 66.2 64.4 94% 29.9 0.0
23 22:15 Calm 10.00 Fair CLR 68 62.6 83% 29.89 0.0
23 21:55 Calm 10.00 Light Rain CLR 69.8 62.6 78% 29.89 0.0
23 21:35 Calm 10.00 Light Rain CLR 69.8 62.6 78% 29.88 0.0
23 21:15 Calm 10.00 Fair CLR 71.6 62.6 73% 29.88 0.0
23 20:55 Calm 10.00 Fair CLR 73.4 60.8 65% 29.88 0.0
23 20:35 Calm 10.00 Fair CLR 75.2 60.8 61% 77 29.88 0.0
23 20:15 Calm 10.00 Fair CLR 77 60.8 57% 79 29.87 0.0
23 18:55 W 7 10.00 Fair CLR 80.6 57.2 45% 81 29.87 0.0
23 18:35 W 9 10.00 Fair CLR 80.6 55.4 42% 81 29.87 0.0
23 18:15 NW 9 10.00 Fair CLR 80.6 55.4 42% 81 29.86 0.0
23 17:55 W 9 10.00 Fair CLR 82.4 55.4 40% 82 29.86 0.0
23 17:35 W 13 G 18 10.00 Fair CLR 80.6 55.4 42% 81 29.87 0.0
23 17:15 W 12 G 17 10.00 Fair CLR 82.4 57.2 42% 82 29.87 0.0
23 16:55 W 9 10.00 Fair CLR 82.4 57.2 42% 82 29.87 0.0
23 16:35 NW 12 10.00 Fair CLR 82.4 57.2 42% 82 29.87 0.0
23 16:15 W 10 10.00 Fair CLR 82.4 59 45% 82 29.86 0.0
23 15:55 W 12 G 17 10.00 Fair CLR 82.4 59 45% 82 29.87 0.0
23 15:35 NW 15 G 18 10.00 Partly Cloudy SCT060 82.4 60.8 48% 83 29.87 0.0
23 15:15 W 8 10.00 Partly Cloudy SCT060 SCT065 80.6 60.8 51% 81 29.87 0.0
23 14:55 NW 8 10.00 Partly Cloudy SCT060 80.6 60.8 51% 81 29.87 0.0
23 14:35 W 8 10.00 Fair CLR 80.6 62.6 54% 82 29.88 0.0
23 14:15 W 8 10.00 Partly Cloudy SCT042 SCT048 80.6 62.6 54% 82 29.88 0.0
23 13:55 NW 7 10.00 Partly Cloudy SCT042 78.8 64.4 61% 81 29.88 0.0
23 13:35 NW 6 10.00 Partly Cloudy SCT035 78.8 64.4 61% 81 29.88 0.0
23 13:15 NW 3 10.00 Partly Cloudy SCT032 SCT038 78.8 64.4 61% 81 29.88 0.0
23 12:55 NW 5 10.00 Partly Cloudy SCT027 SCT035 77 64.4 65% 79 29.89 0.0
23 12:35 W 10 10.00 Partly Cloudy SCT025 SCT032 75.2 64.4 69% 77 29.89 0.0
23 12:15 W 3 10.00 Mostly Cloudy SCT023 BKN034 73.4 64.4 74% 29.89 0.0
23 11:55 W 7 10.00 Mostly Cloudy SCT023 BKN032 BKN040 75.2 64.4 69% 77 29.9 0.0
23 11:35 W 6 10.00 Partly Cloudy SCT023 75.2 66.2 74% 77 29.89 0.0
23 11:15 W 5 10.00 Partly Cloudy SCT021 73.4 64.4 74% 29.89 0.0
23 10:55 W 5 10.00 Partly Cloudy SCT019 73.4 62.6 69% 29.89 0.0
23 10:35 Calm 10.00 Partly Cloudy SCT019 71.6 62.6 73% 29.89 0.0
23 10:15 NW 5 10.00 Mostly Cloudy BKN021 71.6 62.6 73% 29.89 0.0
23 09:55 W 5 10.00 Overcast OVC021 69.8 62.6 78% 29.9 0.0
23 09:35 W 3 10.00 Partly Cloudy SCT023 69.8 60.8 73% 29.9 0.0
23 09:15 W 5 10.00 Fair CLR 68 60.8 78% 29.9 0.0
23 08:55 Calm 10.00 Fair CLR 66.2 57.2 73% 29.91 0.0
23 08:35 Calm 10.00 Fair CLR 64.4 57.2 78% 29.91 0.0
23 08:15 Calm 10.00 Partly Cloudy SCT037 60.8 55.4 83% 29.9 0.0
23 07:55 Calm 10.00 Mostly Cloudy SCT037 BKN043 59 55.4 88% 29.91 0.0
23 07:35 Calm 10.00 Overcast OVC044 59 55.4 88% 29.9 0.0
23 07:15 Calm 10.00 Overcast OVC046 59 55.4 88% 29.9 0.0
23 06:55 Calm 10.00 Mostly Cloudy BKN048 57.2 55.4 94% 29.9 0.0
23 06:35 Calm 10.00 Fair CLR 55.4 53.6 94% 29.9 0.0
23 06:15 Calm 10.00 Fair CLR 55.4 53.6 94% 29.89 0.0
23 05:55 Calm 10.00 Fair CLR 55.4 53.6 94% 29.88 0.0
23 05:35 Calm 10.00 Fair CLR 53.6 53.6 100% 29.88 0.0
23 05:15 W 3 10.00 Fair CLR 53.6 53.6 100% 29.88 0.0
23 04:55 Calm 10.00 Fair CLR 53.6 53.6 100% 29.88 0.0
23 04:35 Calm 10.00 Fair CLR 55.4 53.6 94% 29.87 0.0
23 04:15 NW 5 10.00 Partly Cloudy SCT008 55.4 53.6 94% 29.87 0.0
23 03:55 NW 3 10.00 Mostly Cloudy BKN008 55.4 53.6 94% 29.87 0.0
23 03:35 Calm 10.00 Mostly Cloudy BKN008 55.4 53.6 94% 29.86 0.0
23 03:15 NW 3 10.00 Overcast OVC008 55.4 55.4 100% 29.86 0.0
23 02:55 N 5 10.00 Overcast OVC008 57.2 55.4 94% 29.87 0.0
23 02:35 NW 5 10.00 Overcast OVC008 57.2 55.4 94% 29.87 0.0
23 02:15 NW 8 10.00 Overcast OVC008 57.2 55.4 94% 29.86 0.0
23 01:55 NW 7 10.00 Overcast OVC008 57.2 55.4 94% 29.85 0.0
23 01:35 NW 9 10.00 Overcast OVC008 59 57.2 94% 29.85 0.0
23 01:15 NW 7 10.00 Overcast OVC008 60.8 57.2 88% 29.84 0.0
23 00:55 N 9 10.00 Overcast OVC012 60.8 57.2 88% 29.85 0.0
23 00:35 NW 12 10.00 Overcast OVC010 60.8 57.2 88% 29.84 0.0
23 00:15 NW 9 10.00 Overcast BKN006 OVC010 60.8 59 94% 29.84 0.0
22 23:55 N 9 10.00 Overcast BKN006 OVC010 62.6 60.8 94% 29.84 0.0
22 23:35 N 12 G 20 10.00 Overcast BKN010 OVC015 64.4 60.8 88% 29.83 0.0
22 23:15 NW 14 G 17 10.00 Overcast OVC014 64.4 62.6 94% 29.83 0.0
22 22:55 NW 10 10.00 Overcast OVC014 64.4 62.6 94% 29.83 0.0
22 22:35 NW 10 G 17 10.00 Overcast OVC012 64.4 62.6 94% 29.83 0.0
22 22:15 NW 13 10.00 Overcast BKN010 OVC015 64.4 62.6 94% 29.82 0.0
22 21:55 NW 13 G 17 10.00 Overcast OVC014 64.4 62.6 94% 29.82 0.0
22 21:35 NW 9 G 13 10.00 Overcast OVC013 66.2 62.6 88% 29.82 0.0
22 21:15 NW 13 G 18 10.00 Overcast BKN011 OVC014 66.2 62.6 88% 29.8 0.0
22 20:55 NW 13 G 22 10.00 Overcast OVC011 66.2 64.4 94% 29.8 0.0
22 20:35 NW 10 10.00 Overcast OVC013 66.2 64.4 94% 29.79 0.0
22 20:15 NW 6 10.00 Overcast OVC013 68 64.4 88% 29.78 0.0
22 19:55 NW 8 10.00 Overcast BKN011 OVC080 68 64.4 88% 29.78 0.0
22 19:35 N 8 10.00 Overcast BKN011 BKN050 OVC080 69.8 64.4 83% 29.77 0.0
22 19:15 NW 7 10.00 Overcast BKN011 BKN019 OVC050 69.8 66.2 88% 29.78 0.0
22 18:55 NW 13 G 17 10.00 Overcast SCT011 BKN015 OVC036 69.8 66.2 88% 29.78 0.0
22 18:35 NW 12 10.00 Mostly Cloudy SCT010 SCT022 BKN033 69.8 66.2 88% 29.77 0.0
22 18:15 NW 12 10.00 Mostly Cloudy BKN031 BKN070 71.6 66.2 83% 29.77 0.0
22 17:55 NW 8 10.00 Overcast SCT014 BKN029 OVC070 71.6 69.8 94% 29.77 0.0
22 17:35 NW 8 10.00 Mostly Cloudy SCT012 SCT019 BKN070 71.6 66.2 83% 29.77 0.0
22 17:15 NW 3 10.00 Overcast SCT012 BKN019 OVC070 71.6 68 88% 29.77 0.0
22 16:55 N 3 10.00 Overcast BKN012 OVC017 71.6 68 88% 29.77 0.0
22 16:35 Calm 10.00 Mostly Cloudy SCT010 BKN017 BKN024 71.6 69.8 94% 29.77 0.0
22 16:15 Calm 10.00 Mostly Cloudy SCT008 BKN017 BKN022 71.6 69.8 94% 29.78 0.0
22 15:55 N 5 10.00 Light Rain SCT006 SCT021 71.6 69.8 94% 29.77 0.0
22 15:35 N 7 10.00 Light Rain SCT015 BKN021 69.8 69.8 100% 29.77 0.0
22 15:15 NW 7 10.00 Light Rain SCT008 SCT017 BKN026 69.8 69.8 100% 29.81 0.0
22 14:55 Calm 7.00 Heavy Rain SCT020 SCT027 OVC034 69.8 69.8 100% 29.81 0.0
22 14:35 Calm 5.00 Heavy Rain SCT024 OVC034 71.6 68 88% 29.81 0.0
22 14:15 Calm 7.00 Light Rain SCT019 BKN033 OVC038 73.4 66.2 78% 29.79 0.0
22 13:55 NE 3 10.00 Light Rain SCT019 BKN029 OVC033 73.4 66.2 78% 29.78 0.0
22 13:35 NE 5 10.00 Overcast SCT021 OVC027 73.4 66.2 78% 29.78 0.0
22 13:15 Calm 10.00 Overcast SCT017 BKN024 OVC031 73.4 66.2 78% 29.79 0.0
22 12:55 NE 3 10.00 Overcast BKN019 BKN028 OVC033 75.2 66.2 74% 77 29.8 0.0
22 12:35 Calm 10.00 Overcast SCT019 OVC026 73.4 66.2 78% 29.82 0.0
22 12:15 Calm 10.00 Overcast BKN022 OVC028 73.4 64.4 74% 29.82 0.0
22 11:55 Calm 10.00 Overcast SCT020 OVC026 73.4 64.4 74% 29.82 0.0
22 11:35 Calm 10.00 Overcast SCT015 OVC023 73.4 64.4 74% 29.83 0.0
22 11:15 Calm 10.00 Overcast BKN015 OVC021 71.6 66.2 83% 29.82 0.0
22 10:55 N 3 10.00 Overcast BKN015 OVC021 71.6 66.2 83% 29.83 0.0
22 10:35 N 5 10.00 Overcast BKN016 OVC021 71.6 66.2 83% 29.84 0.0
22 10:15 N 5 10.00 Mostly Cloudy BKN016 71.6 68 88% 29.84 0.0
22 09:55 N 3 10.00 Mostly Cloudy SCT008 BKN014 69.8 69.8 100% 29.85 0.0
22 09:35 N 3 10.00 Overcast SCT006 OVC012 69.8 69.8 100% 29.85 0.0
22 09:15 NW 6 7.00 Overcast OVC006 68 68 100% 29.86 0.0
22 08:55 NW 7 2.00 Fog/Mist OVC002 66.2 66.2 100% 29.86 0.0
22 08:35 NW 7 1.25 Fog/Mist OVC002 68 68 100% 29.86 0.0
22 08:15 NW 5 1.00 Fog/Mist OVC002 66.2 66.2 100% 29.86 0.0
22 07:55 NW 3 1.00 Fog/Mist OVC002 66.2 66.2 100% 29.86 0.0
22 07:35 Calm 3.00 Fog/Mist OVC002 66.2 66.2 100% 29.86 0.0
22 07:15 Calm 0.50 Fog OVC002 66.2 66.2 100% 29.86 0.0
22 06:55 Calm 0.50 Fog OVC002 66.2 66.2 100% 29.87 0.0
22 06:35 Calm 0.50 Fog OVC002 66.2 66.2 100% 29.87 0.0
22 06:15 E 6 2.00 Fog/Mist OVC002 66.2 66.2 100% 29.86 0.0
22 05:55 E 5 4.00 Fog/Mist BKN002 BKN020 66.2 66.2 100% 29.87 0.0
22 05:35 E 3 7.00 Mostly Cloudy SCT016 BKN021 66.2 66.2 100% 29.87 0.0
22 05:15 E 5 10.00 Overcast SCT004 SCT009 OVC015 66.2 66.2 100% 29.86 0.0
22 04:55 N 5 10.00 Overcast OVC006 66.2 66.2 100% 29.87 0.0
22 04:35 N 3 10.00 Overcast OVC004 66.2 66.2 100% 29.88 0.0
22 04:15 NW 6 10.00 Overcast OVC004 66.2 66.2 100% 29.88 0.0
22 03:55 W 9 10.00 Overcast OVC004 66.2 66.2 100% 29.88 0.0
22 03:35 SE 9 10.00 Light Rain OVC004 66.2 66.2 100% 29.84 0.0
22 03:15 SE 9 10.00 Light Rain OVC004 66.2 66.2 100% 29.85 0.0
22 02:55 SE 10 10.00 Light Rain OVC004 66.2 66.2 100% 29.88 0.0
22 02:35 SE 3 10.00 Light Rain OVC004 66.2 66.2 100% 29.9 0.0
22 02:15 SE 3 10.00 Light Rain OVC004 66.2 66.2 100% 29.92 0.0
22 01:55 SE 7 10.00 Light Rain BKN004 BKN015 OVC029 66.2 66.2 100% 29.93 0.0
22 01:35 SE 9 10.00 Rain SCT018 BKN026 OVC036 66.2 66.2 100% 29.94 0.0
22 01:15 SE 6 10.00 Rain SCT005 BKN022 OVC049 66.2 66.2 100% 29.96 0.0 0.01
22 00:55 E 3 10.00 Light Rain BKN005 BKN014 OVC027 66.2 66.2 100% 29.98 0.0
22 00:35 E 7 10.00 Heavy Rain OVC005 66.2 66.2 100% 29.98 0.0 0.01
22 00:15 E 7 7.00 Rain OVC005 66.2 66.2 100% 29.98 0.0 0.01
21 23:55 E 7 7.00 Rain SCT005 BKN009 OVC033 66.2 66.2 100% 29.99 0.0
21 23:35 E 8 5.00 Rain BKN003 BKN011 OVC021 66.2 66.2 100% 30 0.0
21 23:15 Calm 3.00 Heavy Rain OVC003 66.2 66.2 100% 30.03 0.0 0.03
21 22:55 NE 7 4.00 Heavy Rain OVC003 66.2 66.2 100% 29.99 0.0 0.01
21 22:35 NE 7 3.00 Light Rain OVC003 66.2 66.2 100% 30 0.0 0.01
Date Time (cdt) Wind (mph) Vis. (mi.) Weather Sky Cond. Air Dwpt Max. Min. Relative Humidity Wind Chill (°F) Heat Index (°F) altimeter (in) sea level (mb) 1 hr 3 hr 6 hr
6 hour
Temperature (ºF) Pressure Precipitation (in)